Time,TemperatureF,DewpointF,PressureIn,WindDirection,WindDirectionDegrees,WindSpeedMPH,WindSpeedGustMPH,Humidity,HourlyPrecipIn,Conditions,Clouds,dailyrainin,SoftwareType,DateUTC
2013-05-16 00:14:00,52.4,50.0,29.32,ENE,71,4.0,12.0,90,0.00,,,0.00,weatherlink.com 1.10,2013-05-16 04:14:00,
2013-05-16 00:29:00,52.4,50.0,29.32,North,10,6.0,15.0,91,0.00,,,0.00,weatherlink.com 1.10,2013-05-16 04:29:00,
2013-05-16 00:44:00,52.4,50.0,29.31,NE,51,10.0,10.0,91,0.00,,,0.00,weatherlink.com 1.10,2013-05-16 04:44:00,
2013-05-16 00:59:00,52.1,50.0,29.32,ENE,70,2.0,7.0,91,0.00,,,0.00,weatherlink.com 1.10,2013-05-16 04:59:00,
2013-05-16 01:14:00,51.7,50.0,29.31,NE,34,2.0,7.0,92,0.00,,,0.00,weatherlink.com 1.10,2013-05-16 05:14:00,
2013-05-16 01:29:00,51.5,49.0,29.32,NE,40,2.0,9.0,92,0.00,,,0.00,weatherlink.com 1.10,2013-05-16 05:29:00,
2013-05-16 01:44:00,51.7,50.0,29.32,NNE,22,3.0,6.0,92,0.00,,,0.00,weatherlink.com 1.10,2013-05-16 05:44:00,
2013-05-16 01:59:00,51.7,49.0,29.32,NE,50,4.0,5.0,91,0.00,,,0.00,weatherlink.com 1.10,2013-05-16 05:59:00,
2013-05-16 02:14:00,51.2,49.0,29.32,NE,50,2.0,4.0,91,0.00,,,0.00,weatherlink.com 1.10,2013-05-16 06:14:00,
2013-05-16 02:29:00,51.1,49.0,29.32,NE,45,2.0,6.0,92,0.00,,,0.00,weatherlink.com 1.10,2013-05-16 06:29:00,
2013-05-16 02:44:00,50.9,48.0,29.32,ENE,74,2.0,7.0,91,0.00,,,0.00,weatherlink.com 1.10,2013-05-16 06:44:00,
2013-05-16 03:00:00,50.6,48.0,29.32,NE,46,3.0,5.0,91,0.00,,,0.00,weatherlink.com 1.10,2013-05-16 07:00:00,
2013-05-16 03:15:00,50.0,48.0,29.31,NE,51,3.0,4.0,91,0.00,,,0.00,weatherlink.com 1.10,2013-05-16 07:15:00,
2013-05-16 03:30:00,49.7,47.0,29.30,East,89,1.0,5.0,91,0.00,,,0.00,weatherlink.com 1.10,2013-05-16 07:30:00,
2013-05-16 03:45:00,48.8,46.0,29.31,East,89,0.0,2.0,90,0.00,,,0.00,weatherlink.com 1.10,2013-05-16 07:45:00,
2013-05-16 04:00:00,47.4,45.0,29.30,East,88,1.0,2.0,92,0.00,,,0.00,weatherlink.com 1.10,2013-05-16 08:00:00,
2013-05-16 04:15:00,46.3,44.0,29.30,SSE,156,2.0,3.0,93,0.00,,,0.00,weatherlink.com 1.10,2013-05-16 08:15:00,
2013-05-16 04:30:00,46.0,44.0,29.31,East,100,2.0,5.0,94,0.00,,,0.00,weatherlink.com 1.10,2013-05-16 08:30:00,
2013-05-16 04:45:00,46.8,45.0,29.31,ENE,59,4.0,6.0,92,0.00,,,0.00,weatherlink.com 1.10,2013-05-16 08:45:00,
2013-05-16 05:00:00,47.1,44.0,29.31,East,82,5.0,9.0,89,0.00,,,0.00,weatherlink.com 1.10,2013-05-16 09:00:00,
2013-05-16 05:15:00,46.6,44.0,29.31,ENE,65,1.0,5.0,90,0.00,,,0.00,weatherlink.com 1.10,2013-05-16 09:15:00,
2013-05-16 05:30:00,45.6,43.0,29.30,ENE,74,4.0,7.0,91,0.00,,,0.00,weatherlink.com 1.10,2013-05-16 09:30:00,
2013-05-16 05:45:00,46.7,43.0,29.30,ENE,74,2.0,6.0,88,0.00,,,0.00,weatherlink.com 1.10,2013-05-16 09:45:00,
2013-05-16 06:00:00,46.5,43.0,29.30,East,84,1.0,6.0,88,0.00,,,0.00,weatherlink.com 1.10,2013-05-16 10:00:00,
2013-05-16 06:15:00,46.5,43.0,29.31,ESE,103,2.0,5.0,87,0.00,,,0.00,weatherlink.com 1.10,2013-05-16 10:15:00,
2013-05-16 06:30:00,47.3,43.0,29.32,ENE,70,5.0,8.0,85,0.00,,,0.00,weatherlink.com 1.10,2013-05-16 10:30:00,
2013-05-16 06:45:00,49.5,44.0,29.32,NE,55,2.0,5.0,81,0.00,,,0.00,weatherlink.com 1.10,2013-05-16 10:45:00,
2013-05-16 07:00:00,51.5,45.0,29.33,NE,52,3.0,6.0,77,0.00,,,0.00,weatherlink.com 1.10,2013-05-16 11:00:00,
2013-05-16 07:15:00,53.7,44.0,29.33,NE,49,7.0,7.0,71,0.00,,,0.00,weatherlink.com 1.10,2013-05-16 11:15:00,
2013-05-16 07:30:00,56.2,45.0,29.33,NE,37,4.0,10.0,67,0.00,,,0.00,weatherlink.com 1.10,2013-05-16 11:30:00,
2013-05-16 07:45:00,57.5,43.0,29.34,ENE,59,5.0,10.0,59,0.00,,,0.00,weatherlink.com 1.10,2013-05-16 11:45:00,
2013-05-16 08:00:00,58.9,43.0,29.34,ENE,60,2.0,11.0,57,0.01,,,0.01,weatherlink.com 1.10,2013-05-16 12:00:00,
2013-05-16 08:16:00,59.7,43.0,29.34,NNE,32,3.0,10.0,54,0.01,,,0.01,weatherlink.com 1.10,2013-05-16 12:16:00,
2013-05-16 08:31:00,60.6,42.0,29.35,ENE,63,8.0,13.0,50,0.01,,,0.01,weatherlink.com 1.10,2013-05-16 12:31:00,
2013-05-16 08:46:00,61.7,42.0,29.35,NE,35,8.0,11.0,49,0.01,,,0.01,weatherlink.com 1.10,2013-05-16 12:46:00,
2013-05-16 09:01:00,62.0,42.0,29.35,ENE,76,12.0,14.0,48,0.00,,,0.01,weatherlink.com 1.10,2013-05-16 13:01:00,
2013-05-16 09:16:00,62.9,42.0,29.35,East,95,13.0,15.0,46,0.00,,,0.01,weatherlink.com 1.10,2013-05-16 13:16:00,
2013-05-16 09:31:00,63.2,42.0,29.35,NE,53,7.0,17.0,47,0.00,,,0.01,weatherlink.com 1.10,2013-05-16 13:31:00,
2013-05-16 09:46:00,63.9,41.0,29.35,NE,49,4.0,17.0,44,0.00,,,0.01,weatherlink.com 1.10,2013-05-16 13:46:00,
2013-05-16 10:01:00,65.0,42.0,29.35,ENE,66,10.0,14.0,43,0.00,,,0.01,weatherlink.com 1.10,2013-05-16 14:01:00,
2013-05-16 10:16:00,65.9,42.0,29.35,NNE,32,5.0,22.0,42,0.00,,,0.01,weatherlink.com 1.10,2013-05-16 14:16:00,
2013-05-16 10:31:00,66.3,40.0,29.35,East,98,10.0,22.0,39,0.00,,,0.01,weatherlink.com 1.10,2013-05-16 14:31:00,
2013-05-16 10:46:00,67.4,39.0,29.36,NE,46,8.0,17.0,36,0.00,,,0.01,weatherlink.com 1.10,2013-05-16 14:46:00,
2013-05-16 11:01:00,69.0,39.0,29.35,East,90,9.0,20.0,33,0.00,,,0.01,weatherlink.com 1.10,2013-05-16 15:01:00,
2013-05-16 11:16:00,70.1,37.0,29.35,NE,41,13.0,19.0,30,0.00,,,0.01,weatherlink.com 1.10,2013-05-16 15:16:00,
2013-05-16 11:31:00,71.2,36.0,29.34,ENE,73,12.0,17.0,28,0.00,,,0.01,weatherlink.com 1.10,2013-05-16 15:31:00,
2013-05-16 11:46:00,70.9,34.0,29.34,SE,125,14.0,23.0,26,0.00,,,0.01,weatherlink.com 1.10,2013-05-16 15:46:00,
2013-05-16 12:02:00,71.0,33.0,29.33,East,82,20.0,30.0,25,0.00,,,0.01,weatherlink.com 1.10,2013-05-16 16:02:00,
2013-05-16 12:17:00,71.4,34.0,29.33,East,99,16.0,29.0,25,0.00,,,0.01,weatherlink.com 1.10,2013-05-16 16:17:00,
2013-05-16 12:32:00,71.9,35.0,29.33,East,94,14.0,26.0,26,0.00,,,0.01,weatherlink.com 1.10,2013-05-16 16:32:00,
2013-05-16 12:47:00,72.6,37.0,29.33,ENE,76,17.0,22.0,27,0.00,,,0.01,weatherlink.com 1.10,2013-05-16 16:47:00,
2013-05-16 13:02:00,72.4,35.0,29.32,East,96,18.0,28.0,25,0.00,,,0.01,weatherlink.com 1.10,2013-05-16 17:02:00,
2013-05-16 13:17:00,73.1,38.0,29.31,NE,42,8.0,22.0,28,0.00,,,0.01,weatherlink.com 1.10,2013-05-16 17:17:00,
2013-05-16 13:32:00,73.3,37.0,29.31,East,88,18.0,32.0,27,0.00,,,0.01,weatherlink.com 1.10,2013-05-16 17:32:00,
2013-05-16 13:47:00,73.1,38.0,29.31,ENE,75,11.0,25.0,28,0.00,,,0.01,weatherlink.com 1.10,2013-05-16 17:47:00,
2013-05-16 14:02:00,73.0,37.0,29.31,East,93,23.0,32.0,27,0.00,,,0.01,weatherlink.com 1.10,2013-05-16 18:02:00,
2013-05-16 14:17:00,73.8,39.0,29.31,ENE,74,17.0,31.0,28,0.00,,,0.01,weatherlink.com 1.10,2013-05-16 18:17:00,
2013-05-16 14:32:00,73.7,39.0,29.30,ESE,110,11.0,24.0,28,0.00,,,0.01,weatherlink.com 1.10,2013-05-16 18:32:00,
2013-05-16 14:47:00,74.2,38.0,29.30,ENE,70,17.0,28.0,27,0.00,,,0.01,weatherlink.com 1.10,2013-05-16 18:47:00,
2013-05-16 15:02:00,74.5,37.0,29.30,East,92,14.0,28.0,26,0.00,,,0.01,weatherlink.com 1.10,2013-05-16 19:02:00,
2013-05-16 15:17:00,74.3,37.0,29.31,ENE,78,7.0,29.0,26,0.00,,,0.01,weatherlink.com 1.10,2013-05-16 19:17:00,
2013-05-16 15:32:00,74.8,37.0,29.30,ESE,112,16.0,29.0,25,0.00,,,0.01,weatherlink.com 1.10,2013-05-16 19:32:00,
2013-05-16 15:47:00,74.6,38.0,29.30,ENE,75,7.0,31.0,27,0.00,,,0.01,weatherlink.com 1.10,2013-05-16 19:47:00,
2013-05-16 16:02:00,74.4,37.0,29.30,East,80,8.0,22.0,26,0.00,,,0.01,weatherlink.com 1.10,2013-05-16 20:02:00,
2013-05-16 16:17:00,74.8,37.0,29.29,East,90,15.0,32.0,25,0.00,,,0.01,weatherlink.com 1.10,2013-05-16 20:17:00,
2013-05-16 16:32:00,74.9,37.0,29.29,NE,48,15.0,27.0,25,0.00,,,0.01,weatherlink.com 1.10,2013-05-16 20:32:00,
2013-05-16 16:47:00,74.9,36.0,29.29,NE,46,20.0,35.0,24,0.00,,,0.01,weatherlink.com 1.10,2013-05-16 20:47:00,
2013-05-16 17:02:00,75.3,37.0,29.29,NE,42,11.0,36.0,25,0.00,,,0.01,weatherlink.com 1.10,2013-05-16 21:02:00,
2013-05-16 17:17:00,75.4,36.0,29.29,ESE,111,18.0,24.0,24,0.00,,,0.01,weatherlink.com 1.10,2013-05-16 21:17:00,
2013-05-16 17:32:00,75.0,36.0,29.29,East,88,10.0,27.0,24,0.00,,,0.01,weatherlink.com 1.10,2013-05-16 21:32:00,
2013-05-16 17:47:00,74.8,36.0,29.30,East,84,14.0,28.0,24,0.00,,,0.01,weatherlink.com 1.10,2013-05-16 21:47:00,
2013-05-16 18:02:00,74.4,36.0,29.30,East,83,13.0,30.0,25,0.00,,,0.01,weatherlink.com 1.10,2013-05-16 22:02:00,
2013-05-16 18:17:00,74.3,35.0,29.30,ENE,71,11.0,18.0,24,0.00,,,0.01,weatherlink.com 1.10,2013-05-16 22:17:00,
2013-05-16 18:32:00,73.9,36.0,29.31,East,88,15.0,23.0,25,0.00,,,0.01,weatherlink.com 1.10,2013-05-16 22:32:00,
2013-05-16 18:47:00,73.2,36.0,29.31,ENE,57,13.0,23.0,26,0.00,,,0.01,weatherlink.com 1.10,2013-05-16 22:47:00,
2013-05-16 19:02:00,72.8,37.0,29.31,North,355,7.0,18.0,27,0.00,,,0.01,weatherlink.com 1.10,2013-05-16 23:02:00,
2013-05-16 19:17:00,72.5,36.0,29.32,East,97,11.0,26.0,26,0.00,,,0.01,weatherlink.com 1.10,2013-05-16 23:17:00,
2013-05-16 19:32:00,72.1,34.0,29.32,East,88,9.0,23.0,25,0.00,,,0.01,weatherlink.com 1.10,2013-05-16 23:32:00,
2013-05-16 19:47:00,71.1,34.0,29.33,East,86,6.0,15.0,26,0.00,,,0.01,weatherlink.com 1.10,2013-05-16 23:47:00,
2013-05-16 20:02:00,69.9,35.0,29.34,ESE,102,4.0,9.0,28,0.00,,,0.01,weatherlink.com 1.10,2013-05-17 00:02:00,
2013-05-16 20:17:00,68.9,35.0,29.35,ENE,76,2.0,9.0,29,0.00,,,0.01,weatherlink.com 1.10,2013-05-17 00:17:00,
2013-05-16 20:32:00,68.4,33.0,29.36,ENE,61,4.0,10.0,27,0.00,,,0.01,weatherlink.com 1.10,2013-05-17 00:32:00,
2013-05-16 20:47:00,68.5,31.0,29.38,East,87,6.0,16.0,25,0.00,,,0.01,weatherlink.com 1.10,2013-05-17 00:47:00,
2013-05-16 21:02:00,67.5,32.0,29.39,ENE,71,7.0,8.0,27,0.00,,,0.01,weatherlink.com 1.10,2013-05-17 01:02:00,
2013-05-16 21:17:00,66.6,31.0,29.40,ENE,58,4.0,9.0,27,0.00,,,0.01,weatherlink.com 1.10,2013-05-17 01:17:00,
2013-05-16 21:32:00,66.4,31.0,29.41,East,80,5.0,12.0,27,0.00,,,0.01,weatherlink.com 1.10,2013-05-17 01:32:00,
2013-05-16 21:47:00,65.6,31.0,29.41,ENE,68,3.0,9.0,28,0.00,,,0.01,weatherlink.com 1.10,2013-05-17 01:47:00,
2013-05-16 22:02:00,64.7,32.0,29.41,NW,318,1.0,10.0,29,0.00,,,0.01,weatherlink.com 1.10,2013-05-17 02:02:00,
2013-05-16 22:17:00,63.7,37.0,29.43,SSE,162,5.0,16.0,37,0.00,,,0.01,weatherlink.com 1.10,2013-05-17 02:17:00,
2013-05-16 22:32:00,61.5,40.0,29.43,SE,144,9.0,15.0,45,0.00,,,0.01,weatherlink.com 1.10,2013-05-17 02:32:00,
2013-05-16 22:47:00,59.8,41.0,29.45,SE,142,5.0,11.0,51,0.00,,,0.01,weatherlink.com 1.10,2013-05-17 02:47:00,
2013-05-16 23:03:00,58.5,42.0,29.45,SSE,158,5.0,9.0,54,0.00,,,0.01,weatherlink.com 1.10,2013-05-17 03:03:00,
2013-05-16 23:18:00,57.5,42.0,29.46,SE,136,1.0,6.0,56,0.00,,,0.01,weatherlink.com 1.10,2013-05-17 03:18:00,
2013-05-16 23:33:00,56.6,42.0,29.47,SSW,198,1.0,3.0,59,0.00,,,0.01,weatherlink.com 1.10,2013-05-17 03:33:00,
2013-05-16 23:48:00,55.7,42.0,29.47,SSW,194,5.0,10.0,60,0.00,,,0.01,weatherlink.com 1.10,2013-05-17 03:48:00,